Regional Weather Roundup
Issued by NWS Newport/Morehead, NC

Current Version | Previous Version | Text Only | Print | Product List | Glossary On
Versions: 1 2 3 4 5 6 7 8 9 10 11 12 13 14 15 16 17 18 19 20 21 22 23 24 25 26 27 28 29 30 31 32 33 34 35 36 37 38 39 40 41 42 43 44 45 46 47 48 49 50
000
ASUS42 KMHX 260113
RWRMHX
WEATHER ROUNDUP FOR EASTERN NORTH CAROLINA
NATIONAL WEATHER SERVICE NEWPORT/MOREHEAD CITY NC
900 PM EDT TUE APR 25 2017

NOTE: "FAIR" INDICATES FEW OR NO CLOUDS BELOW 12,000 FEET
WITH NO SIGNIFICANT WEATHER AND/OR OBSTRUCTIONS TO VISIBILITY

NCZ015>017-031-032-045>047-102-103-260200-
NORTH COAST

CITY           SKY/WX    TMP DP  RH WIND       PRES   REMARKS
EDENTON        CLOUDY    68  61  78 SW8       29.65F
ELIZABETH CITY LGT RAIN  65  64  97 S8        29.64S
KITTY HAWK     PTCLDY    64  64 100 CALM      29.64S
MANTEO         CLOUDY    67  61  82 SW8       29.66R

$$

NCZ045>047-081-094-103-104-260200-
CENTRAL COAST

CITY           SKY/WX    TMP DP  RH WIND       PRES   REMARKS
FRISCO         PTCLDY    67  60  78 W8        29.66R HAZE

$$

NCZ095-097-098-100-101-260200-
SOUTHERN COAST

CITY           SKY/WX    TMP DP  RH WIND       PRES   REMARKS
BEAUFORT       PTCLDY    67  63  87 SW9       29.67R
CEDAR ISLAND   NOT AVBL
JACKSONVILLE   MOCLDY    64  63  96 W8        29.69R
PINEY ISLAND   CLEAR    N/A N/A N/A S6        29.66R
WILMINGTON     CLOUDY    64  61  90 W8        29.71R


$$

NCZ011>013-027>030-043-044-078>080-089-090>093-098-260200-
COASTAL PLAIN

CITY           SKY/WX    TMP DP  RH WIND       PRES   REMARKS
AHOSKIE          N/A     61  60  96 CALM      29.65F
CLINTON        CLEAR     63  60  89 W3        29.71R
ELIZABETHTOWN  CLOUDY    63  61  93 CALM      29.72R
GOLDSBORO      CLEAR     66  64  94 W8        29.68R
GREENVILLE     CLOUDY    64  64 100 CALM      29.71R
HAVELOCK       PTCLDY    67  62  84 SW6       29.68R
KENANSVILLE    MOCLDY    64  59  82 W6        29.70R
KINSTON        PTCLDY    64  63  94 CALM      29.68R
NEW BERN       CLEAR     62  62 100 CALM      29.68R
RICHLANDS      CLEAR     64  62  93 SW8       29.70R
ROCKY MOUNT    PTCLDY    65  59  81 W9        29.68R
WASHINGTON     CLOUDY    64  63  97 CALM      29.66R
WHITEVILLE     MOCLDY    62  59  90 CALM      29.72R

$$

AMZ130-135-150-152-154-156-158-170-250-252-270-ANZ085-086-088-633-658-670-260200-
MARINE OBSERVATIONS

STATION/POSITION TIME  TEMP    WIND        PRES    WAVE   SWELL
                       AIR SEA DIR/SP/G            HT/PER HT/PER
                 (UTC) (F)     (DEG/KT/KT) (MB)    (FT/S) (FT/S)
CHESAPEAKE LIGHT NOT AVBL
64 E VA BEACH    2350   59 55  190/ 10/ 12 1003.3   10/11  10/11
DUCK             0048   61 60  160/  6/  6 1003.2
2 E DUCK         0100      60                N/A     7/11   3/11
OREGON INLET     0048          200/  4/  5   N/A
13E OREGON INLT  0048      58                N/A     7/11   7/11
HATTERAS CG      0048   66 68  230/  9/ 12 1004.2
DIAMOND BUOY     0050   71 78  230/ 17/ 21 1004.0    8/10   5/10
CAPE LOOKOUT     0000   68     240/ 13/ 18 1003.8
BEAUFORT LAB     0048   67 66  230/  5/  9 1003.9
30 SE NEW RVR IN 0008   67     250/ 17/ 23 1004.7
30 SE NEW RVR IN 0043      71                N/A     7/10   2/11
27 SE WRIGHTSVLE 0008   68 72  250/ 16/ 23 1004.7
5 SE WRIGHTSVLE  0008   67 70  260/ 16/ 21 1005.2
225 S CAPE HAT   2350   73 75  230/ 19/ 23 1007.4    8/ 8
41 SE CHARLESTON 0050   70 73  220/ 14/ 16 1007.0    5/ 9   3/ 9

$$




USA.gov is the U.S. government's official web portal to all federal, state and local government web resources and services.